Date String (YYYY-MM-DD hh:mm:ss) UTC,Instrument flags,absolute air pressure of the measurement (hPa),sample flow rate (lpm),inlet stack bypass flow (lpm),air temperature of the measurement (°C),ambient temperature measured by the external sensor (°C),aerosol sample conditioner tube jacket temperature (°C),OPC LED temperature (°C),internal box temperature (°C),relative humidity of the measurement (%),span deviation,mass concentration of particles derived from Lorenz-Mie calculation of OPC scattering (μg/m³),mass concentration of particles derived from Lorenz-Mie calculation of OPC scattering (μg/m³),mass concentration of particles derived from Lorenz-Mie calculation of OPC scattering (μg/m³)
DateTimeUTC,F1_M11,P_M11,Q1_M11,Q2_M11,T1_M11,T2_M11,T3_M11,T4_M11,T5_M11,U1_M11,ZSPAN_M11,X2_M11,X0_M11,X1_M11
2023-08-08 19:00:00,SystemResetWarning,0830.7,5.00,000.00,030.2,026.5,000.0,038.0,030.8,34.2,-000.8,0006.32,0015.81,0005.41
2023-08-08 19:01:00,SystemResetWarning,0830.6,5.00,000.00,030.2,026.9,000.0,038.1,031.0,34.3,-001.0,0006.38,0016.37,0005.41
2023-08-08 19:02:00,SystemResetWarning,0830.7,5.00,000.00,030.3,027.2,000.0,038.2,031.1,33.5,-000.8,0006.37,0014.82,0005.42
2023-08-08 19:03:00,SystemResetWarning,0830.7,4.99,000.00,030.4,027.5,000.0,038.2,031.1,33.2,-000.4,0006.34,0014.60,0005.42
2023-08-08 19:04:00,SystemResetWarning,0830.7,4.99,000.00,030.4,027.7,000.0,038.3,031.2,32.6,-000.3,0006.36,0014.89,0005.42
2023-08-08 19:05:00,SystemResetWarning,0830.7,5.00,000.00,030.4,027.9,000.0,038.3,031.3,32.6,-000.0,0006.34,0014.46,0005.43
2023-08-08 19:06:00,SystemResetWarning,0830.7,5.00,000.00,030.5,027.0,000.0,038.3,031.1,32.7,-000.2,0006.39,0013.83,0005.46
2023-08-08 19:07:00,SystemResetWarning,0830.7,5.00,000.00,030.4,025.5,000.0,038.2,030.8,32.9,-000.2,0006.41,0014.28,0005.47
2023-08-08 19:08:00,SystemResetWarning,0830.7,5.01,000.00,030.4,025.1,000.0,038.1,030.7,32.9,-000.1,0006.40,0014.43,0005.48
2023-08-08 19:09:00,SystemResetWarning,0830.6,5.01,000.00,030.2,025.2,000.0,038.2,030.5,32.6,-000.6,0006.47,0014.77,0005.51
2023-08-08 19:10:00,SystemResetWarning,0830.6,5.00,000.00,030.1,025.6,000.0,038.2,030.6,33.5,-000.5,0006.52,0015.31,0005.54
2023-08-08 19:11:00,SystemResetWarning,0830.7,5.00,000.00,030.1,026.1,000.0,038.2,030.7,33.9,-000.7,0006.56,0015.52,0005.57
2023-08-08 19:12:00,SystemResetWarning,0830.7,4.99,000.00,030.1,026.5,000.0,038.3,030.8,33.6,-000.8,0006.58,0015.37,0005.60
2023-08-08 19:13:00,SystemResetWarning,0830.7,5.00,000.00,030.1,026.9,000.0,038.3,030.9,33.6,-000.8,0006.60,0015.28,0005.61
2023-08-08 19:14:00,SystemResetWarning,0830.7,5.00,000.00,030.1,027.2,000.0,038.3,031.0,33.1,-001.0,0006.66,0015.31,0005.63
2023-08-08 19:15:00,SystemResetWarning,0830.7,5.00,000.00,030.1,027.5,000.0,038.3,031.1,31.7,-001.6,0006.68,0015.37,0005.67
2023-08-08 19:16:00,SystemResetWarning,0830.7,5.00,000.00,030.1,027.7,000.0,038.3,031.2,31.9,-001.8,0006.73,0015.67,0005.69
2023-08-08 19:17:00,SystemResetWarning,0830.7,5.00,000.00,030.1,027.9,000.0,038.4,031.2,30.8,-001.6,0006.69,0016.03,0005.68
2023-08-08 19:18:00,SystemResetWarning,0830.7,4.99,000.00,030.1,027.4,000.0,038.3,031.2,31.6,-001.2,0006.65,0016.25,0005.66
2023-08-08 19:19:00,SystemResetWarning,0830.6,5.01,000.00,030.1,025.8,000.0,038.2,030.9,32.0,-001.2,0006.70,0016.59,0005.66
2023-08-08 19:20:00,SystemResetWarning,0830.6,5.00,000.00,030.0,025.1,000.0,038.1,030.7,29.0,-001.0,0006.68,0016.44,0005.63
2023-08-08 19:21:00,SystemResetWarning,0830.6,5.00,000.00,029.9,025.2,000.0,038.0,030.6,27.6,-001.3,0006.67,0016.82,0005.61
2023-08-08 19:22:00,SystemResetWarning,0830.5,5.02,000.00,029.8,025.5,000.0,038.1,030.6,29.9,-000.8,0006.68,0016.67,0005.59
2023-08-08 19:23:00,SystemResetWarning,0830.5,5.00,000.00,029.8,025.9,000.0,038.1,030.7,32.2,-000.2,0006.63,0016.06,0005.58
2023-08-08 19:24:00,SystemResetWarning,0830.5,5.00,000.00,029.7,026.4,000.0,038.1,030.8,30.1,-000.6,0006.64,0016.36,0005.57
2023-08-08 19:25:00,SystemResetWarning,0830.4,4.99,000.00,029.7,026.8,000.0,038.1,030.9,26.6,-000.8,0006.62,0017.16,0005.56
2023-08-08 19:26:00,SystemResetWarning,0830.5,5.01,000.00,029.8,027.1,000.0,038.1,031.0,30.8,-000.1,0006.62,0016.77,0005.53
2023-08-08 19:27:00,SystemResetWarning,0830.5,5.00,000.00,029.8,027.4,000.0,038.1,031.0,29.8,-000.1,0006.58,0015.91,0005.50
2023-08-08 19:28:00,SystemResetWarning,0830.5,5.00,000.00,029.8,027.7,000.0,038.2,031.1,28.8,0000.1,0006.60,0015.24,0005.47
2023-08-08 19:29:00,SystemResetWarning,0830.4,4.99,000.00,029.8,027.5,000.0,038.1,031.1,28.4,-000.1,0006.63,0015.63,0005.46
2023-08-08 19:30:00,SystemResetWarning,0830.6,4.98,000.00,029.8,026.0,000.0,038.0,030.9,28.0,-000.1,0006.58,0015.20,0005.46
2023-08-08 19:31:00,SystemResetWarning,0830.7,5.00,000.00,029.7,025.0,000.0,037.9,030.6,24.5,-000.3,0006.55,0015.20,0005.46
2023-08-08 19:32:00,SystemResetWarning,0830.6,5.00,000.00,029.6,025.0,000.0,037.8,030.4,25.0,0000.1,0006.51,0014.53,0005.45
2023-08-08 19:33:00,SystemResetWarning,0830.4,5.01,000.00,029.5,025.3,000.0,037.8,030.4,22.3,0000.4,0006.47,0014.62,0005.44
2023-08-08 19:34:00,SystemResetWarning,0830.4,4.99,000.00,029.4,025.8,000.0,037.9,030.5,22.8,0000.1,0006.46,0014.79,0005.43
2023-08-08 19:35:00,SystemResetWarning,0830.4,4.99,000.00,029.4,026.2,000.0,037.9,030.6,22.1,-000.1,0006.40,0014.81,0005.43
2023-08-08 19:36:00,SystemResetWarning,0830.4,5.00,000.00,029.4,026.6,000.0,037.9,030.7,19.2,0000.3,0006.37,0014.60,0005.42
2023-08-08 19:37:00,SystemResetWarning,0830.4,5.00,000.00,029.5,027.0,000.0,037.9,030.8,21.6,0000.3,0006.34,0015.09,0005.41
2023-08-08 19:38:00,SystemResetWarning,0830.4,4.99,000.00,029.5,027.3,000.0,037.9,030.9,24.2,0000.6,0006.30,0015.15,0005.38
2023-08-08 19:39:00,SystemResetWarning,0830.4,4.99,000.00,029.5,027.6,000.0,037.9,031.0,23.7,0000.9,0006.25,0016.26,0005.37
2023-08-08 19:40:00,SystemResetWarning,0830.4,5.01,000.00,029.6,027.8,000.0,037.9,031.1,23.5,0001.0,0006.16,0016.28,0005.33
2023-08-08 19:41:00,SystemResetWarning,0830.5,5.00,000.00,029.6,027.8,000.0,037.9,031.1,22.6,0001.1,0006.11,0016.38,0005.29
2023-08-08 19:42:00,SystemResetWarning,0830.4,4.99,000.00,029.6,026.5,000.0,037.8,030.8,23.7,0001.6,0006.11,0017.13,0005.27
2023-08-08 19:43:00,SystemResetWarning,0830.4,5.00,000.00,029.5,025.2,000.0,037.7,030.6,24.3,0001.2,0006.05,0016.93,0005.22
2023-08-08 19:44:00,SystemResetWarning,0830.3,5.01,000.00,029.4,025.0,000.0,037.6,030.5,25.8,0000.0,0005.94,0016.49,0005.15
2023-08-08 19:45:00,SystemResetWarning,0830.4,5.01,000.00,029.3,025.2,000.0,037.7,030.4,23.9,0000.0,0005.90,0016.15,0005.10
2023-08-08 19:46:00,SystemResetWarning,0830.3,5.01,000.00,029.3,025.7,000.0,037.7,030.4,22.7,0000.0,0005.89,0015.97,0005.07
2023-08-08 19:47:00,SystemResetWarning,0830.3,5.00,000.00,029.3,026.1,000.0,037.7,030.6,23.5,0000.0,0005.87,0014.84,0005.03
2023-08-08 19:48:00,SystemResetWarning,0830.3,5.00,000.00,029.3,026.5,000.0,037.7,030.7,24.1,0000.0,0005.81,0015.96,0004.98
2023-08-08 19:49:00,SystemResetWarning,0830.3,4.99,000.00,029.3,026.9,000.0,037.7,030.8,24.7,0000.0,0005.75,0015.82,0004.95
2023-08-08 19:50:00,SystemResetWarning,0830.4,4.99,000.00,029.3,027.2,000.0,037.7,030.8,23.0,0000.0,0005.72,0014.63,0004.92
2023-08-08 19:51:00,SystemResetWarning,0830.4,5.00,000.00,029.3,027.5,000.0,037.7,030.9,22.3,0000.0,0005.73,0013.76,0004.90
2023-08-08 19:52:00,SystemResetWarning,0830.5,5.01,000.00,029.4,027.7,000.0,037.8,031.0,23.4,0000.0,0005.74,0013.41,0004.86
2023-08-08 19:53:00,SystemResetWarning,0830.4,4.99,000.00,029.4,026.7,000.0,037.6,030.8,23.3,0000.0,0005.67,0013.75,0004.81
2023-08-08 19:54:00,SystemResetWarning,0830.3,5.00,000.00,029.3,025.8,000.0,037.5,030.7,22.8,0000.0,0005.64,0014.59,0004.77
2023-08-08 19:55:00,SystemResetWarning,0830.3,5.01,000.00,029.3,025.9,000.0,037.5,030.6,22.9,0000.0,0005.61,0014.04,0004.74
2023-08-08 19:56:00,SystemResetWarning,0830.3,5.00,000.00,029.2,026.1,000.0,037.6,030.5,22.5,0000.0,0005.52,0014.13,0004.67
2023-08-08 19:57:00,SystemResetWarning,0830.3,4.99,000.00,029.2,026.5,000.0,037.6,030.6,22.7,0000.0,0005.41,0014.16,0004.58
2023-08-08 19:58:00,SystemResetWarning,0830.3,5.00,000.00,029.2,026.9,000.0,037.6,030.8,23.4,0000.0,0005.30,0013.97,0004.51
2023-08-08 19:59:00,SystemResetWarning,0830.2,5.00,000.00,029.3,027.2,000.0,037.7,030.8,24.1,0000.0,0005.19,0012.28,0004.45
